Theta_e
307 310 310 310 309 308 309 309 309 307 306 308 309 309 310 308 306 307 306 306 305 304 301 299 298 297 296 296 297 297 297 297 298 298 303 308 306 311 314 319 322 324 324 325
309 310 308 306 307 308 308 308 310 308 306 307 309 309 306 307 307 306 306 306 305 304 303 300 298 297 297 296 296 296 296 296 297 297 297 300 302 308 309 314 317 321 323 322
309 308 306 307 308 307 309 308 309 309 309 307 307 309 308 306 305 305 305 305 304 304 303 301 299 297 296 296 295 295 295 295 296 296 297 300 304 305 307 311 313 316 320 323
306 304 306 307 308 308 308 307 308 309 311 311 306 308 309 307 307 307 307 306 305 304 302 300 299 297 296 295 294 294 294 295 295 296 296 297 298 299 300 303 307 311 315 319
306 305 305 306 307 307 308 306 308 308 310 310 309 310 310 305 308 308 307 305 304 303 301 300 299 297 295 294 294 294 294 295 294 295 295 296 296 297 298 301 304 310 312 315
305 304 305 305 305 306 304 307 304 304 309 320 308 306 307 308 307 307 307 306 304 303 302 299 298 296 295 294 293 294 294 295 294 294 295 296 296 297 299 299 301 306 308 312
303 303 302 303 305 304 304 304 322 325 330 321 303 305 307 307 306 305 307 306 305 303 302 300 299 297 295 294 293 293 294 294 294 294 294 295 296 297 298 298 298 301 305 308
314 320 303 302 306 306 306 303 309 315 313 307 301 307 305 306 304 304 304 304 303 303 302 300 298 297 295 293 292 293 293 293 293 293 294 294 295 296 297 297 298 299 301 304
308 306 302 302 303 304 305 308 302 304 297 306 303 303 302 304 306 305 305 304 304 302 301 300 298 296 294 293 292 291 292 293 293 293 293 294 294 295 296 297 298 299 300 302
304 311 300 301 303 303 304 301 304 306 312 313 306 300 303 304 306 306 305 304 303 302 301 300 298 296 294 292 291 291 291 292 292 292 293 294 294 294 295 296 297 298 299 300
300 308 304 301 306 307 305 307 302 303 303 310 310 308 304 304 305 306 305 303 302 302 300 300 298 296 294 292 290 291 291 291 292 292 292 293 293 295 295 295 296 297 298 299
299 306 307 307 300 300 302 304 303 304 308 302 303 308 300 302 303 302 304 303 299 298 298 298 297 296 294 292 290 290 290 291 291 291 293 293 293 293 294 294 295 297 298 300
300 307 316 310 303 300 304 303 303 298 300 306 311 316 298 299 300 302 302 302 298 297 298 297 296 296 295 293 290 290 290 290 290 291 292 293 293 293 293 294 295 297 299 300
299 303 312 318 314 306 305 303 304 303 308 306 305 314 307 302 301 302 300 299 298 297 297 296 297 296 295 291 290 289 290 290 290 291 292 292 293 293 293 294 296 297 298 300
299 304 297 300 299 300 303 304 304 302 304 314 311 301 306 305 301 300 298 298 299 298 297 295 295 293 292 291 289 289 289 290 289 290 292 293 293 293 293 294 295 296 298 298
299 305 297 302 295 297 300 301 303 303 302 299 300 300 304 302 300 298 299 300 301 301 299 296 294 292 291 291 290 289 290 289 289 290 292 292 292 293 294 294 295 295 296 298
300 301 302 316 294 295 310 300 301 303 302 303 303 307 302 300 300 302 302 301 302 302 300 299 297 293 292 291 290 290 289 290 290 290 291 292 292 293 294 294 295 295 296 297
300 301 301 313 302 321 317 297 300 302 303 302 302 302 301 301 299 300 300 301 301 299 299 299 298 294 292 291 290 290 290 290 290 290 290 291 291 292 292 294 295 294 295 296
297 298 304 311 313 313 312 297 300 300 310 301 302 303 301 298 298 300 299 299 299 298 297 298 298 295 292 291 290 290 289 290 290 291 290 289 290 290 291 292 293 294 294 294
295 296 303 300 313 320 313 299 296 297 309 304 301 303 300 298 301 303 299 298 297 296 296 296 296 294 292 291 290 290 290 290 290 291 291 290 289 289 290 290 291 292 293 293
301 300 302 302 310 309 305 297 296 313 317 298 300 301 298 299 301 299 298 299 298 297 296 296 296 294 293 291 290 290 290 290 291 291 291 291 289 289 289 290 289 290 290 291
302 303 302 299 304 309 297 295 303 306 299 297 297 298 298 299 297 298 299 299 298 297 296 296 295 294 294 292 290 290 290 291 290 289 290 290 290 289 289 289 290 289 289 288
306 305 304 303 305 301 297 301 298 296 300 299 297 296 297 298 298 298 299 299 297 297 297 297 296 295 294 293 291 290 292 291 290 289 289 288 288 288 288 288 288 288 289 288
296 296 303 301 305 300 298 299 297 297 298 299 297 296 295 298 298 299 299 298 298 297 296 297 295 295 295 295 294 293 292 291 290 290 289 288 288 287 287 287 286 287 287 287
302 299 299 300 301 299 300 298 300 300 297 297 297 297 296 296 298 298 298 297 296 297 296 296 296 297 298 297 296 295 293 291 290 289 289 289 288 288 288 287 287 287 287 287
298 301 304 308 304 308 311 304 300 299 298 298 297 297 295 295 297 296 297 297 297 297 297 296 296 296 298 298 298 297 295 293 291 289 289 289 288 288 288 287 287 287 287 287
Wind_Speed
4 5 7 6 4 2 2 7 7 2 2 7 4 12 12 7 7 9 9 8 6 6 3 4 5 7 9 12 13 14 15 15 14 17 15 8 10 9 9 6 9 12 14 15
2 5 4 5 4 2 4 6 6 5 2 5 6 13 3 2 3 6 7 8 7 6 5 4 6 8 9 12 13 14 13 14 12 13 11 8 12 6 6 8 6 7 13 15
3 5 4 4 5 3 1 4 8 7 9 3 12 3 1 1 4 5 7 8 7 7 7 7 7 8 9 11 13 13 12 13 12 12 11 7 4 4 4 8 8 4 7 16
5 1 3 5 4 2 1 3 7 9 7 3 8 4 1 3 6 1 3 6 6 5 5 6 7 8 9 10 10 12 11 11 11 12 9 8 6 6 7 7 5 4 1 9
2 1 1 2 3 1 2 4 4 7 5 3 6 2 1 3 3 6 5 6 5 3 5 6 6 7 8 9 12 10 10 9 9 10 9 8 5 4 6 7 5 5 5 2
3 1 2 2 2 2 1 1 3 3 3 1 3 3 2 3 5 6 5 5 5 4 4 6 7 7 8 8 9 10 11 10 10 8 8 7 6 5 5 6 6 4 5 6
0 1 1 1 2 3 2 1 1 1 1 1 1 3 6 6 6 6 7 7 6 5 6 5 7 9 10 11 11 9 10 10 10 10 8 8 7 6 5 6 6 4 5 5
3 2 2 3 3 1 3 2 0 3 1 3 1 3 1 2 5 10 8 7 5 3 4 5 6 8 9 10 12 11 11 11 11 11 9 7 8 6 5 5 6 3 2 3
3 1 0 3 2 4 2 1 2 5 1 1 2 4 8 2 4 3 4 3 3 2 2 2 3 3 6 7 10 10 10 9 9 8 7 6 6 7 6 5 5 5 3 4
5 2 0 1 1 2 1 4 1 1 2 2 2 5 3 2 4 4 3 4 3 4 2 0 1 0 2 5 6 9 8 9 9 9 9 7 6 6 5 4 4 4 4 3
4 0 2 1 5 3 3 2 1 1 3 0 2 3 6 6 5 6 6 5 6 5 4 3 2 4 1 3 5 5 8 9 10 9 8 8 8 7 6 5 4 3 3 4
3 2 2 1 1 2 2 2 3 2 2 1 1 6 4 7 5 4 9 8 8 6 5 4 3 4 2 2 3 5 5 7 8 9 10 11 10 8 6 5 4 2 1 3
5 1 1 1 0 2 5 5 4 3 0 6 3 3 1 6 6 7 8 9 8 5 3 2 4 5 4 1 3 4 5 7 9 9 8 9 9 8 7 6 4 3 1 1
3 1 4 3 1 4 4 6 11 5 3 4 7 6 5 7 8 6 6 7 6 6 3 2 2 4 5 5 2 1 4 7 8 8 8 8 9 10 10 8 6 4 2 3
1 3 2 3 3 2 3 5 13 12 7 7 1 7 10 5 8 6 5 3 5 7 4 4 3 5 6 6 5 2 0 3 6 6 7 9 10 9 8 8 8 6 4 4
4 1 1 4 1 4 6 12 12 15 7 12 12 21 14 10 6 5 7 5 6 7 5 4 4 6 8 8 7 5 2 2 2 3 5 6 6 6 6 8 8 8 7 7
7 6 3 4 2 4 7 10 17 9 9 12 11 11 1 3 6 5 6 8 8 7 5 5 6 10 10 11 9 9 7 4 2 1 2 3 4 6 7 7 7 8 8 8
6 4 1 2 2 4 4 2 7 16 8 18 11 10 6 4 2 5 7 7 8 7 7 7 7 8 10 12 11 9 10 9 5 2 1 2 1 2 4 5 6 7 7 7
1 3 2 3 3 7 5 5 8 10 8 26 25 19 9 5 5 10 14 14 13 7 8 12 9 10 11 13 13 11 10 10 9 8 5 3 1 0 1 3 5 5 6 6
3 2 2 3 4 6 3 3 4 2 5 5 22 15 13 7 4 4 8 6 7 7 7 10 12 12 13 15 15 14 12 11 10 10 7 4 2 1 2 1 1 4 5 6
5 3 7 3 5 7 8 5 6 1 4 1 11 11 15 9 6 2 6 4 6 8 10 11 14 15 16 17 17 16 14 15 12 11 10 8 6 6 4 4 3 4 6 8
10 10 5 4 4 10 8 6 8 1 1 0 5 10 14 8 3 3 5 6 8 9 13 14 14 14 15 17 18 17 17 12 13 13 12 11 9 8 8 6 5 5 6 6
5 7 8 12 9 1 14 2 7 1 3 2 3 5 8 10 6 8 7 7 8 11 12 15 17 16 17 18 21 21 19 17 16 15 14 13 11 11 10 9 9 8 9 8
5 4 3 3 9 14 9 12 8 4 8 2 3 4 9 8 8 10 7 7 9 14 16 16 16 18 21 23 24 24 18 18 19 18 17 16 14 13 13 12 13 14 13 12
4 10 7 5 9 4 9 12 15 10 12 8 6 6 11 10 8 10 7 7 12 15 17 19 23 23 24 22 25 25 23 20 22 21 20 20 19 18 16 17 17 17 16 16
7 8 7 6 9 6 8 3 5 13 13 15 12 8 8 12 11 7 7 15 16 16 15 17 23 25 23 21 23 24 24 25 25 24 24 24 23 21 20 18 18 20 20 17
Wind_Direction
18 85 74 68 60 34 335 286 297 328 25 317 299 301 317 318 252 254 261 265 273 294 305 302 328 339 348 351 353 354 352 352 354 357 2 350 352 22 57 108 176 202 207 209
85 89 115 110 99 89 9 314 323 288 287 297 316 311 359 339 276 271 281 277 277 285 304 315 335 342 350 347 350 350 353 348 354 359 360 338 324 348 6 76 123 167 200 211
92 105 143 114 87 2 47 359 336 298 317 270 316 198 37 117 283 282 273 280 279 281 306 323 335 341 344 346 344 345 347 346 347 356 360 355 345 1 5 51 63 95 196 204
70 65 169 128 95 7 10 21 315 294 313 356 354 328 23 319 317 270 357 1 353 298 294 305 322 337 342 340 340 341 347 347 350 357 1 20 12 350 1 10 11 63 121 199
113 137 199 128 118 162 62 325 311 302 297 290 19 301 79 301 314 359 359 3 7 351 309 307 318 330 333 337 337 340 348 348 354 352 1 7 1 355 355 348 7 63 69 139
91 92 3 38 126 119 32 224 252 286 272 80 18 351 264 330 315 318 333 355 353 347 320 299 312 322 331 337 347 346 352 356 351 0 2 355 351 7 0 352 357 37 40 66
162 90 125 339 167 139 82 299 285 261 53 353 140 268 277 281 275 272 309 326 337 330 321 313 315 329 334 339 345 353 355 354 354 355 357 350 352 3 3 350 336 1 18 20
184 231 17 18 340 83 79 357 162 291 294 309 192 243 338 254 288 278 273 281 294 335 338 310 318 323 334 337 340 346 353 353 353 348 351 349 353 350 350 345 320 335 358 340
138 138 52 43 352 291 144 252 111 106 25 250 293 261 271 269 278 243 268 265 309 345 16 329 318 318 326 334 335 338 344 346 354 353 343 344 356 352 351 342 318 324 320 305
186 100 56 60 260 28 35 122 209 171 282 330 270 282 272 238 260 278 269 306 323 307 305 271 177 228 318 327 333 333 341 343 350 354 348 349 360 360 350 332 322 336 326 288
156 21 68 319 201 199 145 157 100 28 309 217 302 245 204 218 218 274 307 308 310 306 301 279 191 162 190 310 327 336 339 343 346 358 1 357 1 6 351 335 331 334 312 299
170 122 161 213 24 337 339 142 196 225 205 51 6 271 187 223 240 263 288 305 314 298 295 279 205 172 166 287 317 335 345 343 349 349 2 8 6 4 348 341 329 349 325 286
182 218 160 214 235 265 233 185 172 114 256 207 193 248 337 263 262 249 262 282 302 283 287 264 198 187 178 196 315 337 346 349 353 359 7 16 10 1 356 357 355 34 113 189
152 167 228 253 161 112 186 198 194 187 199 168 236 298 250 248 251 267 255 267 272 267 263 263 222 196 186 173 175 323 346 350 356 2 8 16 15 11 9 8 18 35 76 131
209 251 198 268 253 238 244 192 187 200 204 219 337 230 267 213 230 246 258 271 272 265 231 221 201 187 193 187 171 169 81 5 352 0 12 19 24 23 14 26 32 51 69 100
172 226 147 272 287 236 259 238 206 219 228 266 277 286 256 267 221 233 235 233 243 252 242 209 204 199 198 190 169 159 139 75 37 9 8 26 33 37 41 49 51 65 76 94
172 156 176 263 333 288 266 227 199 189 208 208 218 233 241 242 212 221 217 215 228 239 225 210 186 195 191 184 171 160 147 126 91 63 5 20 34 45 54 61 71 78 79 87
164 169 171 283 293 247 246 148 192 210 228 212 247 238 234 241 234 248 230 219 228 228 230 226 191 173 178 175 168 161 147 141 140 137 310 322 6 37 64 82 84 80 90 92
246 152 172 236 225 309 261 196 171 187 267 210 220 229 217 226 304 268 231 225 236 223 228 216 194 177 171 173 172 168 164 160 159 170 182 196 214 282 145 120 107 108 99 93
130 53 199 152 234 232 260 167 191 203 280 196 202 211 187 152 233 243 173 181 177 191 193 193 182 177 173 179 178 178 179 182 186 180 183 178 181 171 170 198 159 130 125 126
153 177 211 200 250 283 252 145 141 188 261 139 192 183 164 187 216 351 140 157 147 160 169 179 183 185 187 185 184 191 192 201 193 192 189 187 186 180 188 188 194 193 175 159
167 161 182 146 207 262 136 105 192 266 353 215 185 184 187 192 186 194 180 167 170 164 170 184 186 193 195 194 193 201 208 203 203 200 200 197 194 201 199 199 202 207 204 200
217 198 179 188 204 109 195 258 219 14 313 248 196 195 192 189 202 193 203 193 199 200 195 198 197 192 204 205 208 212 215 204 203 206 207 209 209 208 210 209 210 215 213 221
233 173 214 129 237 232 215 252 259 234 226 230 243 192 185 198 200 205 206 204 202 211 215 212 206 206 213 213 216 223 222 213 208 207 210 213 218 219 219 220 221 215 215 226
158 147 169 267 282 290 240 226 237 236 227 236 219 207 208 200 214 213 212 218 212 215 222 222 224 221 225 223 227 229 223 220 217 218 218 216 219 222 222 224 226 230 236 232
187 175 184 210 217 200 233 173 207 220 224 225 211 219 217 195 213 191 217 217 214 220 225 230 238 241 238 232 235 233 230 225 225 227 224 224 222 222 225 231 236 239 238 235